Regional Weather Roundup
Issued by NWS

Home | Current Version | Previous Version | Text Only | Print | Product List | Glossary Off
Versions: 1 2 3 4 5 6 7 8 9 10 11 12 13 14 15 16 17 18 19 20 21 22 23 24 25 26 27 28 29 30 31 32 33 34 35 36 37 38 39 40 41 42 43 44 45 46 47 48 49 50

000
ASUS45 KABQ 291901
RWRNM
NEW MEXICO REGIONAL WEATHER ROUNDUP
NATIONAL WEATHER SERVICE ALBUQUERQUE NM
100 PM MDT SAT AUG 29 2015

NOTE: "FAIR" MEANS FEW OR NO CLOUDS BELOW 12,000 FEET AGL WITH NO
       SIGNIFICANT WEATHER OR OBSTRUCTIONS TO VISION.

      THIS PRODUCT IS RELEASED AS TWO VERSIONS.  ONE VERSION NEAR
      THE TOP OF THE HOUR CONTAINING PRELIMINARY DATA FROM ALBUQUERQUE
      AND OTHER STATIONS.  A FINAL VERSION WITH ADDITIONAL DATA IS
      ISSUED ABOUT 10 MINUTES AFTER THE HOUR.

NMZ501-503-504-510>518-292000-
NORTHWEST PLATEAU/NORTHCENTRAL MOUNTAINS

CITY           SKY/WX    TMP DP  RH WIND       PRES   REMARKS
FARMINGTON     SUNNY     85  48  27 MISG      30.26F
SANTA FE       MOSUNNY   82  44  26 VRB3      30.33F
TAOS           PTSUNNY   79  39  24 E3        30.39F

$$
NMZ402-403-502-505>509-292000-
WESTCENTRAL MOUNTAINS/SOUTHWEST MOUNTAINS

CITY           SKY/WX    TMP DP  RH WIND       PRES   REMARKS
GALLUP         MOSUNNY   85  42  22 W7        30.32F
SILVER CITY      N/A     82  48  30 S6        30.28F

$$
NMZ407-409-411-412-292000-
SOUTHERN DESERTS

CITY           SKY/WX    TMP DP  RH WIND       PRES   REMARKS
DEMING         SUNNY     88  53  30 E12       30.19F
HOLLOMAN AFB   SUNNY     88  54  30 VRB6      30.15F
ALAMOGORDO     SUNNY     86  50  28 SE6       30.18F
T OR C         SUNNY     86  54  33 VRB5      30.22F

$$
NMZ519>523-292000-
CENTRAL VALLEYS/CENTRAL HIGHLANDS

CITY           SKY/WX    TMP DP  RH WIND       PRES   REMARKS
ALBUQUERQUE    MOSUNNY   86  48  26 VRB7      30.27F
MORIARTY ARPT  FAIR      82  40  22 N5        30.34F
CLINES CORNERS SUNNY     76  44  32 E12       30.39F
BELEN          FAIR      86  43  22 CALM      30.26F
SOCORRO        NOT AVBL

$$
NMZ524>526-539-540-292000-
SOUTHCENTRAL MOUNTAINS

CITY           SKY/WX    TMP DP  RH WIND       PRES   REMARKS
RUIDOSO        MOSUNNY   73  54  49 MISG      30.40F

$$
NMZ527>531-292000-
NORTHEAST HIGHLANDS/NORTHEAST PLAINS

CITY           SKY/WX    TMP DP  RH WIND       PRES   REMARKS
LAS VEGAS      MOSUNNY   79  43  27 MISG      30.38F
RATON          SUNNY     81  39  22 MISG      30.33F
CLAYTON        SUNNY     83  53  35 NE12      30.28F

$$
NMZ532>537-292000-
EASTCENTRAL PLAINS

CITY           SKY/WX    TMP DP  RH WIND       PRES   REMARKS
TUCUMCARI      SUNNY     90  51  26 VRB6      30.17F
CANNON AFB     MOSUNNY   86  56  35 E14G22    30.19F
CLOVIS AIRPORT MOSUNNY   84  57  39 SE12G21   30.22S

$$
NMZ028-029-538-292000-
SOUTHEAST PLAINS

CITY           SKY/WX    TMP DP  RH WIND       PRES   REMARKS
ROSWELL        SUNNY     87  54  32 N3        30.18F
ARTESIA        SUNNY     82  59  44 CALM      30.18F
CARLSBAD       NOT AVBL
HOBBS          MOSUNNY   79  59  50 CALM      30.21


$$



USA.gov is the U.S. government's official web portal to all federal, state and local government web resources and services.